Retour au catalogue

COSMOS 2251 DEB

ActifLEO
NORAD 37498·DEBRIS·🇷🇺 Russia

Lancé Jun 16, 1993 depuis Plesetsk Cosmodrome

Loading…

Prochains Passages (prochaines 24 heures)

TLE

VieillissantSource: Space-Track

Époque: Sep 10, 2026, 01:35 UTC

1 37498U 93036BMB 26253.06601117  .00002252  00000-0  51133-3 0  9999
2 37498  74.0366  29.5684 0011416  28.7174 331.4617 14.56579209693039

Suivez COSMOS 2251 DEB en temps réel avec AllMySat

Download on the App Store